• In Deutschland
  • Länderverzeichnis
  • Für 7 Tage
  • Wassertemperatur
  • Satellitenkarten
  • Wetterkarte
  • Widgets
  • user-avatar
    Anmelden

    Stündliche Wetter Oberstdorf

    Heute, 20 Oktober, Freitag

    Zeit Temperatur Niederschläge Wind Luftdruck Luftfeuchtigkeit
    00:00 +9°C° 0 mm 2 m/S 674 mmHg 57%
    01:00 +10°C° 0 mm 3 m/S 674 mmHg 56%
    02:00 +10°C° 0 mm 2 m/S 674 mmHg 59%
    03:00 +10°C° 0 mm 2 m/S 675 mmHg 63%
    04:00 +9°C° 0 mm 2 m/S 675 mmHg 66%
    05:00 +9°C° 0 mm 2 m/S 675 mmHg 68%
    06:00 +9°C° 0 mm 2 m/S 675 mmHg 69%
    07:00 +9°C° 0 mm 3 m/S 675 mmHg 71%
    08:00 +12°C° 0 mm 2 m/S 675 mmHg 65%
    09:00 +14°C° 0 mm 2 m/S 676 mmHg 59%
    10:00 +18°C° 0 mm 1 m/S 677 mmHg 53%
    11:00 +19°C° 0 mm 1 m/S 677 mmHg 50%
    12:00 +19°C° 0 mm 1 m/S 677 mmHg 48%
    13:00 +19°C° 0 mm 2 m/S 677 mmHg 45%
    14:00 +19°C° 0 mm 1 m/S 677 mmHg 51%
    15:00 +18°C° 0 mm 1 m/S 677 mmHg 56%
    16:00 +16°C° 0 mm 1 m/S 677 mmHg 62%
    17:00 +14°C° 0 mm 1 m/S 677 mmHg 69%
    18:00 +12°C° 0 mm 1 m/S 676 mmHg 76%
    19:00 +10°C° 0 mm 1 m/S 676 mmHg 83%
    20:00 +10°C° 0 mm 1 m/S 676 mmHg 82%
    21:00 +10°C° 0 mm 1 m/S 676 mmHg 80%
    22:00 +10°C° 0 mm 1 m/S 677 mmHg 79%
    23:00 +10°C° 0 mm 1 m/S 677 mmHg 77%

    Morgen, 21 Oktober, Samstag

    Zeit Temperatur Niederschläge Wind Luftdruck Luftfeuchtigkeit
    00:00 +10°C° 0 mm 1 m/S 677 mmHg 75%
    01:00 +10°C° 0 mm 1 m/S 677 mmHg 73%
    02:00 +9°C° 0 mm 2 m/S 677 mmHg 72%
    03:00 +9°C° 0 mm 2 m/S 676 mmHg 70%
    04:00 +9°C° 0 mm 2 m/S 676 mmHg 69%
    05:00 +9°C° 0 mm 2 m/S 676 mmHg 67%
    06:00 +10°C° 0 mm 1 m/S 676 mmHg 65%
    07:00 +11°C° 0 mm 1 m/S 677 mmHg 64%
    08:00 +13°C° 0 mm 1 m/S 677 mmHg 60%
    09:00 +14°C° 0 mm 1 m/S 677 mmHg 57%
    10:00 +16°C° 0 mm 1 m/S 678 mmHg 53%
    11:00 +18°C° 0 mm 1 m/S 678 mmHg 51%
    12:00 +19°C° 0 mm 1 m/S 677 mmHg 49%
    13:00 +19°C° 0 mm 2 m/S 677 mmHg 46%
    14:00 +19°C° 0 mm 1 m/S 677 mmHg 52%
    15:00 +18°C° 0 mm 1 m/S 677 mmHg 58%
    16:00 +16°C° 0 mm 1 m/S 676 mmHg 64%
    17:00 +14°C° 0 mm 1 m/S 676 mmHg 69%
    18:00 +13°C° 0 mm 1 m/S 676 mmHg 75%
    19:00 +11°C° 0 mm 1 m/S 676 mmHg 80%
    20:00 +11°C° 0,1 mm 1 m/S 676 mmHg 83%
    21:00 +9°C° 0,1 mm 2 m/S 676 mmHg 86%
    22:00 +9°C° 0,1 mm 2 m/S 676 mmHg 90%
    23:00 +8°C° 0,6 mm 2 m/S 676 mmHg 92%

    übermorgen, 22 Oktober, Sonntag

    Zeit Temperatur Niederschläge Wind Luftdruck Luftfeuchtigkeit
    00:00 +8°C° 0,6 mm 2 m/S 676 mmHg 93%
    01:00 +8°C° 0,6 mm 2 m/S 676 mmHg 95%
    02:00 +7°C° 0,8 mm 2 m/S 676 mmHg 96%
    03:00 +7°C° 0,8 mm 2 m/S 676 mmHg 96%
    04:00 +7°C° 0,8 mm 2 m/S 676 mmHg 96%
    05:00 +6°C° 1,1 mm 2 m/S 676 mmHg 96%
    06:00 +6°C° 1,1 mm 2 m/S 675 mmHg 96%
    07:00 +6°C° 1,1 mm 2 m/S 675 mmHg 96%
    08:00 +6°C° 1,3 mm 2 m/S 675 mmHg 96%
    09:00 +6°C° 1,3 mm 2 m/S 675 mmHg 95%
    10:00 +6°C° 1,3 mm 2 m/S 675 mmHg 94%
    11:00 +6°C° 0,9 mm 2 m/S 675 mmHg 93%
    12:00 +6°C° 0,9 mm 2 m/S 675 mmHg 92%
    13:00 +6°C° 0,9 mm 2 m/S 674 mmHg 91%
    14:00 +5°C° 0,9 mm 2 m/S 674 mmHg 91%
    15:00 +4°C° 0,9 mm 3 m/S 674 mmHg 92%
    16:00 +4°C° 0,9 mm 3 m/S 674 mmHg 92%
    17:00 +4°C° 0,6 mm 3 m/S 674 mmHg 93%
    18:00 +3°C° 0,6 mm 3 m/S 675 mmHg 94%
    19:00 +3°C° 0,6 mm 3 m/S 675 mmHg 95%
    20:00 +2°C° 0,4 mm 3 m/S 675 mmHg 96%
    21:00 +2°C° 0,4 mm 3 m/S 676 mmHg 96%
    22:00 +2°C° 0,4 mm 3 m/S 676 mmHg 96%
    23:00 +2°C° 0,5 mm 3 m/S 676 mmHg 96%

    23 Oktober, Montag

    Zeit Temperatur Niederschläge Wind Luftdruck Luftfeuchtigkeit
    00:00 +2°C° 0,5 mm 3 m/S 676 mmHg 96%
    01:00 +2°C° 0,5 mm 3 m/S 676 mmHg 96%
    02:00 +2°C° 0,6 mm 3 m/S 676 mmHg 96%
    03:00 +2°C° 0,6 mm 3 m/S 675 mmHg 96%
    04:00 +2°C° 0,6 mm 3 m/S 675 mmHg 96%
    05:00 +2°C° 1,1 mm 3 m/S 675 mmHg 96%
    06:00 +2°C° 1,1 mm 3 m/S 675 mmHg 96%
    07:00 +2°C° 1,1 mm 3 m/S 675 mmHg 96%
    08:00 +2°C° 1 mm 3 m/S 675 mmHg 96%
    09:00 +2°C° 1 mm 3 m/S 675 mmHg 96%
    10:00 +3°C° 1 mm 3 m/S 676 mmHg 96%
    11:00 +3°C° 0,9 mm 3 m/S 676 mmHg 96%
    12:00 +3°C° 0,9 mm 3 m/S 676 mmHg 96%
    13:00 +3°C° 0,9 mm 3 m/S 676 mmHg 95%
    14:00 +3°C° 1 mm 3 m/S 676 mmHg 96%
    15:00 +4°C° 1 mm 3 m/S 676 mmHg 96%
    16:00 +4°C° 1 mm 3 m/S 676 mmHg 96%
    17:00 +4°C° 0,8 mm 3 m/S 676 mmHg 97%
    18:00 +3°C° 0,8 mm 3 m/S 677 mmHg 97%
    19:00 +3°C° 0,8 mm 3 m/S 677 mmHg 97%
    20:00 +3°C° 0,9 mm 3 m/S 677 mmHg 97%
    21:00 +4°C° 0,9 mm 2 m/S 677 mmHg 97%
    22:00 +4°C° 0,9 mm 2 m/S 677 mmHg 97%
    23:00 +4°C° 0,8 mm 2 m/S 677 mmHg 97%

    24 Oktober, Dienstag

    Zeit Temperatur Niederschläge Wind Luftdruck Luftfeuchtigkeit
    00:00 +4°C° 0,8 mm 2 m/S 677 mmHg 97%
    01:00 +4°C° 0,8 mm 2 m/S 677 mmHg 97%
    02:00 +4°C° 1,1 mm 2 m/S 677 mmHg 97%
    03:00 +4°C° 1,1 mm 2 m/S 677 mmHg 97%
    04:00 +5°C° 1,1 mm 2 m/S 677 mmHg 97%
    05:00 +6°C° 1 mm 1 m/S 677 mmHg 98%
    06:00 +6°C° 1 mm 1 m/S 678 mmHg 98%
    07:00 +6°C° 1 mm 1 m/S 678 mmHg 98%
    08:00 +7°C° 0,3 mm 1 m/S 678 mmHg 98%
    09:00 +6°C° 0,3 mm 2 m/S 679 mmHg 98%
    10:00 +7°C° 0,3 mm 2 m/S 679 mmHg 98%
    11:00 +9°C° 0,1 mm 1 m/S 679 mmHg 96%
    12:00 +10°C° 0,1 mm 1 m/S 679 mmHg 95%
    13:00 +10°C° 0,1 mm 1 m/S 679 mmHg 94%
    14:00 +10°C° 0 mm 1 m/S 679 mmHg 94%
    15:00 +10°C° 0 mm 1 m/S 679 mmHg 95%
    16:00 +9°C° 0 mm 0 m/S 679 mmHg 95%
    17:00 +9°C° 0 mm 1 m/S 680 mmHg 96%
    18:00 +7°C° 0 mm 1 m/S 680 mmHg 96%
    19:00 +6°C° 0 mm 1 m/S 680 mmHg 97%
    20:00 +6°C° 0 mm 1 m/S 680 mmHg 95%
    21:00 +5°C° 0 mm 1 m/S 680 mmHg 92%
    22:00 +3°C° 0 mm 2 m/S 680 mmHg 90%
    23:00 +3°C° 0 mm 2 m/S 680 mmHg 86%

    25 Oktober, Mittwoch

    Zeit Temperatur Niederschläge Wind Luftdruck Luftfeuchtigkeit
    00:00 +3°C° 0 mm 2 m/S 680 mmHg 83%
    01:00 +3°C° 0 mm 2 m/S 680 mmHg 79%
    02:00 +3°C° 0 mm 2 m/S 680 mmHg 76%
    03:00 +3°C° 0 mm 2 m/S 680 mmHg 74%
    04:00 +3°C° 0 mm 2 m/S 680 mmHg 71%
    05:00 +3°C° 0 mm 2 m/S 680 mmHg 69%
    06:00 +3°C° 0 mm 2 m/S 680 mmHg 67%
    07:00 +3°C° 0 mm 2 m/S 680 mmHg 65%
    08:00 +6°C° 0 mm 1 m/S 680 mmHg 69%
    09:00 +9°C° 0 mm 1 m/S 681 mmHg 72%
    10:00 +11°C° 0 mm 1 m/S 681 mmHg 75%
    11:00 +12°C° 0 mm 1 m/S 681 mmHg 74%
    12:00 +13°C° 0 mm 1 m/S 681 mmHg 73%
    13:00 +14°C° 0 mm 1 m/S 681 mmHg 72%
    14:00 +13°C° 0 mm 1 m/S 681 mmHg 74%
    15:00 +13°C° 0 mm 1 m/S 681 mmHg 76%
    16:00 +12°C° 0 mm 1 m/S 680 mmHg 78%
    17:00 +10°C° 0 mm 1 m/S 680 mmHg 76%
    18:00 +8°C° 0 mm 2 m/S 680 mmHg 75%
    19:00 +6°C° 0 mm 2 m/S 680 mmHg 74%
    20:00 +6°C° 0 mm 2 m/S 681 mmHg 72%
    21:00 +6°C° 0 mm 2 m/S 681 mmHg 70%
    22:00 +6°C° 0 mm 2 m/S 681 mmHg 68%
    23:00 +6°C° 0 mm 2 m/S 681 mmHg 67%
    Mehr zeigen